Location: Altleiningen
(49.5078°N, 8.0741°E)
Time: 09:44:52
(UTC+00:00)

Meteor 1-5 Rocket - Pass Details

Date: 03 March 2021
Orbit: 790 x 914 km, 81.2° (Epoch: 13 April)

Event Time Altitude Azimuth Distance (km) Brightness Sun altitude
Rises 18:31:14 0° 174° (S) 3,289 7.2 -13.3°
Reaches altitude 10° 18:33:37 10° 169° (S) 2,374 6.4 -13.7°
Maximum altitude 18:38:47 51° 95° (E) 1,018 4.2 -14.6°
Drops below altitude 10° 18:44:08 10° 20° (NNE) 2,458 6.5 -15.4°
Sets 18:46:39 0° 16° (NNE) 3,417 7.3 -15.8°
